디시인사이드 갤러리

리듬게임 갤러리

갤러리 이슈박스, 최근방문 갤러리

갤러리 본문 영역

연옥의 엘페리아 풀콤보~앱에서 작성

Cosi갤로그로 이동합니다. 2020.07.03 18:21:25
조회 42 추천 9 댓글 2

추천 비추천

9

고정닉 9

0

원본 첨부파일 1

댓글 영역

전체 리플 0
등록순정렬 기준선택

하단 갤러리 리스트 영역

왼쪽 컨텐츠 영역

갤러리 리스트 영역

갤러리 리스트
번호 제목 글쓴이 작성일 조회 추천
이슈 월간디시 8월호 : 반갑다 논란아 운영자 20/07/31 - -
설문 '나 5cm만 주라' 키 커서 부러운 여자 아이돌은? 운영자 20/08/04 - -
공지 리듬게임에 관련된 사진과 내용을 올려주시기 바랍니다. [745] 운영자 06.08.29 10673530 207
11140331 ㅅㅅㅅㅅㅅㅅㅅㅅㅅㅅ Flexin(210.91) 11:24 8 0
11140330 해결했다 ㅅㅂ ㅋㅋㅋㅋ [4] Flexin(210.91) 11:21 46 0
11140329 따스 dll 파일 넣으면 실행된다고 함. 철학자..ㅋ갤로그로 이동합니다. 11:18 43 0
11140328 응~ 씨발겜 Flexin(210.91) 11:17 19 0
11140327 따스 다렉 오류나는데 어찌함 [1] ホトリ갤로그로 이동합니다. 11:15 26 0
11140326 삭제후 재설치하는중 ㅅㅂㅅㅂ [2] Flexin(210.91) 11:10 37 0
11140325 기타도라 코나스테 바로 뚫렸네. [1] 철학자..ㅋ갤로그로 이동합니다. 11:09 65 0
11140324 적축으로 리겜하는사람 있음? [6] ㅇㅇ(223.39) 11:08 49 0
11140323 악곡팩 초기화되면 어떻게됨?? ㅇㅇ(175.223) 11:08 22 0
11140322 뭐야 따스 런처가 두개네 아데노신갤로그로 이동합니다. 11:07 29 0
11140321 큐엠에이신기체요 니엔테갤로그로 이동합니다. 11:06 18 0
11140320 이치카 사볼곡 비트10판하면 되는건가 [2] 니엔테갤로그로 이동합니다. 11:05 35 0
11140319 따스 이제 한아이디 멀티카드 지원하는거임? [1] 88(121.133) 11:04 31 0
11140318 아니 코나스테에 QMA가 있었네 [3] .민초갤로그로 이동합니다. 11:00 51 0
11140317 에러뜨네 개씨발게임 [2] Flexin(210.91) 10:59 48 0
11140316 날씨 미쳣나봐진짜 [3] faceless갤로그로 이동합니다. 10:58 41 0
11140315 따스 레겐도 있나.. [1] yen(175.223) 10:58 45 0
11140314 스파클링 스마일? 이거 통상?? [1] ㅇㅇ(223.33) 10:56 26 0
11140313 따스 카드 등록 뭐임?? [1] yen(110.70) 10:54 55 0
11140312 따스 이어뮤 참조하는거보니까 데이터연동하는건가 [2] Flexin(210.91) 10:52 69 0
11140311 날씨가 좋다못해 너무 좋아서 화나네 [3] 츠다냥갤로그로 이동합니다. 10:51 43 0
11140310 씨발 딱기다려라 ㅋㅋㅋㅋㅋ [8] Flexin(210.91) 10:50 89 0
11140309 배가고파요 [4] 옾션갤로그로 이동합니다. 10:48 42 0
11140308 새로운 따스 홈 [2] yen(175.223) 10:43 89 0
11140307 인투더매드니스 dp 보니까 이거 생각남 츠다냥갤로그로 이동합니다. 10:42 27 0
11140306 안녕병신들아 [4] 이잌(116.35) 10:41 57 0
11140305 뺌스 따스 오스 맥스 mdt갤로그로 이동합니다. 10:38 24 0
11140304 벨플풀콤 [5] 바나리11갤로그로 이동합니다. 10:37 59 5
11140303 오늘 폭우라는데 오락실을가야하나 [1] RaFan갤로그로 이동합니다. 10:34 26 0
11140302 매드니스근데 중약 연습하기 괴 좋아보이는데 일부는시즈모드됐고일부는통통통통갤로그로 이동합니다. 10:33 25 0
11140301 븜스 따스 오스 [1] 고간갤로그로 이동합니다. 10:33 35 0
11140300 노량진 대여가 자유롭긴 하네 [2] ㅇㅇ(110.70) 10:29 62 0
11140299 개인적으로 디스컨트롤드갤럭시 기대햇는데 아쉽내 [2] 한혜림갤로그로 이동합니다. 10:29 52 0
11140298 어 갑자기 비트 하러가기 귀찮네.... [5] MKP-04갤로그로 이동합니다. 10:27 49 0
11140297 매드니스 dpa 11.8정도될듯 꼰마갤로그로 이동합니다. 10:26 29 0
11140296 신곡영상이요 [3] 말걸리기장인갤로그로 이동합니다. 10:24 97 0
11140295 신곡 2513 바나리11갤로그로 이동합니다. 10:23 35 0
11140294 따스 홈페이지 다운 배너가 사라짐 [1] ㅇㅈ(116.43) 10:19 64 0
11140292 아무도 안궁금해하는 DDR이요 [1] RottenBlotch갤로그로 이동합니다. 10:17 80 0
11140291 이번주 토요일 주작왕 예약잡았다 끼요오오옷 [2] 뉴욕대공황갤로그로 이동합니다. 10:17 56 0
11140290 오늘 따스 업뎃 된다고 해도 kinetic갤로그로 이동합니다. 10:16 35 0
11140289 따스는대체누가이름붙인거. [2] blurtic갤로그로 이동합니다. 10:16 98 0
11140288 아 시발 주안 좆됐네 ㅇㅇ(110.70) 10:15 41 0
11140287 따스 결국 10시에 없뎃 [1] kinetic갤로그로 이동합니다. 10:14 56 0
11140286 와 사볼 저거 노래 개좋은데 [1] ㅁㅁ갤로그로 이동합니다. 10:14 55 0
11140285 아침으로 음식 500그램은 때리부은듯 [1] 5123874갤로그로 이동합니다. 10:14 26 0
11140284 인투더매드니스빡세다 [4] 말걸리기장인갤로그로 이동합니다. 10:12 82 0
11140283 따스 런처 다운로드페이지 내려갔네 십 ㅋㅋㅋ [3] Flexin(210.91) 10:11 73 0
11140282 꺼어어어어어억ㅋㅋㅋㅋㅋㅋ [4] RottenBlotch갤로그로 이동합니다. 10:11 64 1
갤러리 내부 검색
전체게시물 정렬 옵션

오른쪽 컨텐츠 영역

이슈줌NEW

1/6

힛(HIT)NEW

그때 그 힛

1/3